Location: Czekanka
(50.4925°N, 19.2643°E)
Time: 13:38:12
(UTC+00:00)

Cosmos 2082 - Pass Details

Date: 15 June 2024
Orbit: 834 x 853 km, 71.0° (Epoch: 16 July)

Event Time Altitude Azimuth Distance (km) Brightness Sun altitude
Exits shadow 00:03:40 20° 190° (S) 1,827 4.8 -14.1°
Maximum altitude 00:07:31 65° 114° (ESE) 921 3.9 -13.9°
Drops below altitude 10° 00:13:05 10° 34° (NE) 2,455 7.5 -13.6°
Sets 00:15:32 0° 32° (NNE) 3,393 8.7 -13.4°
